Reading, PA

12:18 AM EST on February 24, 2017 (GMT -0500)
Reading Regional-Spaatz

Weather History for KRDG - May, 2013

Change the Weather History Date:

Tuesday, May 28, 2013

  Actual Average Record
Temperature  
Mean Temperature 60 °F 65 °F  
Max Temperature 65 °F 76 °F 92 °F (1991)
Min Temperature 54 °F 54 °F 38 °F (1994)
Degree Days  
Heating Degree Days 5 3  
Month to date heating degree days 143 162  
Since 1 July heating degree days 4988 5360  
Cooling Degree Days 0 3  
Month to date cooling degree days 45 44  
Year to date cooling degree days 60 53  
Growing Degree Days 10 (Base 50)    
Moisture  
Dew Point 56 °F    
Average Humidity 82    
Maximum Humidity 97    
Minimum Humidity 67    
Precipitation  
Precipitation 0.30 in 0.16 in 2.28 in (1968)
Month to date precipitation 3.46 3.75  
Year to date precipitation 13.04 16.53  
Sea Level Pressure  
Sea Level Pressure 30.16 in    
Wind  
Wind Speed 2 mph (NNE)    
Max Wind Speed 7 mph    
Max Gust Speed 8 mph    
Visibility 7 miles    
Events Rain    
T = Trace of Precipitation, MM = Missing Value Source: NWS Daily Summary

Daily Weather History Graph

Daily Weather History Graph

Search for Another Location

Airport or City:

Trip Planner

Search our weather history database for the weather conditions in past years. The results will help you decide how hot, cold, wet, or windy it might be!

Date:

Astronomy

May. 28, 2013 Rise Set
Actual Time 5:37 AM EDT 8:24 PM EDT
Civil Twilight 5:05 AM EDT 8:57 PM EDT
Nautical Twilight 4:25 AM EDT 9:37 PM EDT
Astronomical Twilight 3:39 AM EDT 10:23 PM EDT
Moon 11:46 PM EDT (5/28) 9:23 AM EDT (5/28)
Length of Visible Light 15h 51m
Length of Day
14h 47m
Waning Gibbous, 83% of the Moon is Illuminated
May 28
Waning Gibbous
May 31
Last Quarter
Jun 8
New
Jun 16
First Quarter
Jun 23
Full

Hourly Weather History & Observations

Time (EDT) Temp. Dew Point Humidity Pressure Visibility Wind Dir Wind Speed Gust Speed Precip Events Conditions
12:54 AM 55.9 °F 46.0 °F 69% 30.21 in 10.0 mi Calm Calm - N/A   Clear
1:54 AM 57.0 °F 46.9 °F 69% 30.22 in 10.0 mi Calm Calm - N/A   Clear
2:54 AM 55.0 °F 48.0 °F 77% 30.20 in 10.0 mi Calm Calm - N/A   Clear
3:54 AM 55.0 °F 50.0 °F 83% 30.19 in 10.0 mi Calm Calm - N/A   Mostly Cloudy
4:54 AM 55.0 °F 48.9 °F 80% 30.19 in 10.0 mi Calm Calm - 0.00 in   Partly Cloudy
5:54 AM 55.9 °F 48.9 °F 77% 30.20 in 10.0 mi Calm Calm - N/A   Mostly Cloudy
6:54 AM 57.0 °F 51.1 °F 81% 30.20 in 10.0 mi Calm Calm - N/A   Overcast
7:54 AM 57.9 °F 51.1 °F 78% 30.21 in 10.0 mi North 3.5 mph - 0.00 in   Overcast
8:54 AM 57.0 °F 53.1 °F 87% 30.22 in 10.0 mi NNE 3.5 mph - 0.02 in Rain Light Rain
9:54 AM 55.9 °F 54.0 °F 93% 30.21 in 3.0 mi NNE 4.6 mph - 0.06 in Rain Rain
10:54 AM 57.9 °F 55.0 °F 90% 30.20 in 10.0 mi South 3.5 mph - 0.05 in Rain Light Rain
11:54 AM 59.0 °F 55.9 °F 90% 30.18 in 9.0 mi Calm Calm - 0.04 in Rain Rain
12:29 PM 59.0 °F 55.4 °F 88% 30.16 in 4.0 mi Calm Calm - 0.05 in Rain Light Rain
12:54 PM 59.0 °F 57.0 °F 93% 30.17 in 4.0 mi ESE 4.6 mph - 0.09 in Rain Rain
1:54 PM 61.0 °F 57.9 °F 90% 30.17 in 10.0 mi Calm Calm - 0.04 in Rain Light Rain
2:13 PM 60.8 °F 57.2 °F 88% 30.15 in 10.0 mi SE 3.5 mph - N/A   Overcast
2:24 PM 62.6 °F 59.0 °F 88% 30.15 in 10.0 mi Calm Calm - N/A   Overcast
2:43 PM 62.6 °F 59.0 °F 88% 30.15 in 10.0 mi Calm Calm - N/A   Overcast
2:54 PM 62.1 °F 59.0 °F 90% 30.16 in 10.0 mi Calm Calm - N/A   Overcast
3:11 PM 62.6 °F 60.8 °F 94% 30.14 in 9.0 mi Calm Calm - N/A   Overcast
3:54 PM 64.0 °F 60.1 °F 87% 30.14 in 10.0 mi SE 3.5 mph - N/A   Overcast
4:01 PM 64.4 °F 60.8 °F 88% 30.13 in 10.0 mi Calm Calm - N/A   Overcast
4:54 PM 64.0 °F 60.1 °F 87% 30.15 in 10.0 mi Calm Calm - 0.00 in   Overcast
5:54 PM 64.0 °F 62.1 °F 93% 30.14 in 8.0 mi Calm Calm - 0.00 in   Overcast
6:39 PM 62.6 °F 60.8 °F 94% 30.12 in 3.0 mi NNE 3.5 mph - N/A   Overcast
6:54 PM 63.0 °F 61.0 °F 93% 30.13 in 3.0 mi Calm Calm - N/A   Mostly Cloudy
7:54 PM 63.0 °F 61.0 °F 93% 30.12 in 3.0 mi Calm Calm - N/A   Mostly Cloudy
8:01 PM 62.6 °F 60.8 °F 94% 30.10 in 2.5 mi Calm Calm - N/A   Mostly Cloudy
8:54 PM 62.1 °F 60.1 °F 93% 30.11 in 2.5 mi Calm Calm - N/A   Mostly Cloudy
9:01 PM 60.8 °F 60.8 °F 100% 30.10 in 2.5 mi Calm Calm - N/A   Mostly Cloudy
9:54 PM 60.1 °F 59.0 °F 96% 30.12 in 2.5 mi NNW 3.5 mph - N/A   Mostly Cloudy
10:54 PM 61.0 °F 59.0 °F 93% 30.13 in 2.5 mi NNW 4.6 mph - N/A   Overcast
11:02 PM 60.8 °F 59.0 °F 94% 30.11 in 1.5 mi North 3.5 mph - N/A   Overcast
11:54 PM 61.0 °F 59.0 °F 93% 30.13 in 1.5 mi North 3.5 mph - N/A   Overcast